RAX-2
1 37853U 11061D 14142.00855035 .00006566 00000-0 45362-3 0 8101
2 37853 101.7162 159.1733 0217952 132.4418 283.2606 14.89099479138766
AUBIESAT
1 37854U 11061E 14142.01818801 .00006982 00000-0 46753-3 0 7929
2 37854 101.7201 160.9561 0215909 129.7323 286.1569 14.90400790138814
HRBE
1 37855U 11061F 14142.67896117 .00007650 00000-0 51686-3 0 8002
2 37855 101.7200 161.3362 0218058 129.0379 352.3459 14.89729968138880
RS-39
1 38051U 11062C 14142.81433896 .00063485 00000-0 83239-3 0 5621
2 38051 051.6280 350.2842 0004824 117.3040 352.0816 15.57940632130156
E-STAR
1 38079U 12006C 14142.82787965 .00130527 65355-5 16099-2 0 8599
2 38079 069.4552 058.3400 0386866 031.6716 070.7355 15.03987417119644
GOLIAT
1 38085U 12006J 14142.85081451 .00122403 60223-5 15897-2 0 619
2 38085 069.4562 064.7705 0409504 034.8833 066.4837 14.98309749119478
HORYU-2
1 38340U 12025D 14142.87835293 .00001739 00000-0 28209-3 0 8594
2 38340 098.2613 099.6541 0011190 257.5627 102.4322 14.72478164108073
RS-40
1 38735U 12041C 14141.55289793 .00000024 00000-0 10000-3 0 5742
2 38735 082.4742 304.1501 0016342 315.2055 044.7705 12.42559373 82273
PROITERES
1 38756U 12047B 14142.81944839 .00000498 00000-0 82032-4 0 8530
2 38756 098.2288 230.6979 0013870 105.3979 254.8763 14.74941059 91444
BEESAT-3
1 39134U 13015E 14142.20543081 .00006165 00000-0 44052-3 0 5920
2 39134 064.8748 220.7726 0025534 312.3724 047.5219 15.05083397 59751
BEESAT-2
1 39136U 13015G 14141.72730547 .00005416 00000-0 39463-3 0 5774
2 39136 064.8748 222.6817 0025737 312.2782 047.6087 15.04493703 59673
LO-75
1 39382U 13064C 14142.64162974 .00067025 00000-0 15154-2 0 2407
2 39382 040.4968 248.3964 0018303 051.4301 308.7291 15.42034277 28110
ZACUBE-1
1 39417U 13066B 14142.85268899 .00001283 00000-0 17929-3 0 3031
2 39417 097.7758 214.3433 0061600 326.7508 032.9819 14.78052138 26956
TRITON-1
1 39427U 13066M 14142.71710403 .00001257 00000-0 21866-3 0 1573
2 39427 097.7644 210.5474 0118016 332.1571 027.3349 14.65353632 26662
DELFIN3XT
1 39428U 13066N 14142.26157905 .00002042 00000-0 36095-3 0 1603
2 39428 097.7614 209.4425 0128032 335.3166 024.1917 14.63231837 26540
GOMX-1
1 39430U 13066Q 14142.75659857 .00001108 00000-0 21899-3 0 4929
2 39430 097.7595 208.1642 0156544 338.0816 021.3691 14.56792337 26513
MO-76
1 39436U 13066W 14142.71424904 .00013706 00000-0 14265-2 0 2130
2 39436 097.7798 216.7284 0025100 335.9204 024.0453 14.89722761 27080
LO-74
1 39440U 13066AA 14141.84342511 .00001524 00000-0 23233-3 0 1546
2 39440 097.7703 211.9223 0083574 331.1520 028.5032 14.73004887 26704
PUCPSAT-1
1 39442U 13066AC 14141.90697650 .00002691 00000-0 31101-3 0 1529
2 39442 097.7797 215.6478 0034173 333.8532 026.0911 14.85996705 25727
LITSAT-1
1 39568U 98067EM 14141.68969853 .08718479 12288-4 16397-2 0 2019
2 39568 051.6199 218.3520 0010228 331.9458 028.2795 16.31113353 12936
LITUANSAT
1 39569U 98067EN 14142.66187034 .00151125 00000-0 10761-2 0 2589
2 39569 051.6444 219.4594 0007993 327.9387 154.8169 15.72814122 13000
SHINAISAT
1 39572U 14009A 14142.19034501 .00041934 00000-0 38395-3 0 1168
2 39572 065.0115 133.0662 0015968 290.1611 069.7820 15.67393572 13033
OPUSAT
1 39575U 14009D 14142.21170158 .00138316 00000-0 69843-3 0 1380
2 39575 065.0095 130.0434 0014568 311.7957 048.1955 15.80820900 13096
TEIKYOSAT
1 39576U 14009E 14142.21311870 .00053501 00000-0 43310-3 0 1214
2 39576 065.0120 132.1790 0014580 308.4328 051.5516 15.70343313 13057
IFT-1
1 39577U 14009F 14142.89134303 .00092370 00000-0 58328-3 0 1282
2 39577 065.0117 128.5697 0013991 310.9796 049.0130 15.75999168 13189
CO-77
1 39578U 14009G 14137.79435183 .04930316 75580-5 46746-3 0 1855
2 39578 064.9698 141.4483 0010610 288.0688 072.6747 16.37966192 12465
STARS-II
1 39579U 14009H 14116.06110564 .20186783 77451-5 52661-3 0 1329
2 39579 064.9886 219.0071 0013010 293.8065 069.6132 16.44611049 9028
KICKSAT
1 39685U 14022F 14133.79926973 .10230793 12532-4 76634-3 0 839
2 39685 051.6478 260.9431 0011364 321.6786 038.9487 16.39478651 3997
